Regional Weather Roundup
Issued by NWS

Home | Current Version | Previous Version | Graphics & Text | Print | Product List | Glossary On
Versions: 1 2 3 4 5 6 7 8 9 10 11 12 13 14 15 16 17 18 19 20 21 22 23 24 25 26 27 28 29 30 31 32 33 34 35 36 37 38 39 40 41 42 43 44 45 46 47 48 49 50
000
ASUS45 KPSR 021400
RWRAZ

ARIZONA HOURLY REGIONAL WEATHER ROUNDUP
NATIONAL WEATHER SERVICE PHOENIX AZ
700 AM MST TUE JUN 02 2015

NOTE: FAIR INDICATES FEW OR NO CLOUDS BELOW 12,000 FEET WITH NO
SIGNIFICANT WEATHER AND/OR OBSTRUCTIONS TO VISIBILITY.

AZZ001>003-036-021500-
NORTHWEST ARIZONA

CITY           SKY/WX    TMP DP  RH WIND       PRES   REMARKS
KINGMAN        SUNNY     71  23  16 CALM      29.98R
$$

AZZ004>008-015-016-018-021500-
NORTH CENTRAL ARIZONA

CITY           SKY/WX    TMP DP  RH WIND       PRES   REMARKS
GRAND CANYON   SUNNY     53  31  42 CALM      30.19S
WILLIAMS       SUNNY     63  28  27 SE8       30.26R
PRESCOTT       SUNNY     64  31  28 CALM      30.11R
FLAGSTAFF      NOT AVBL
PAYSON         SUNNY     63  30  29 CALM      30.16R
PAGE           SUNNY     71  23  16 SW6       30.03R
$$

AZZ009>014-017-021500-
NORTHEAST ARIZONA

CITY           SKY/WX    TMP DP  RH WIND       PRES   REMARKS
WINSLOW        NOT AVBL
SAINT JOHNS    SUNNY     59  24  26 CALM      30.18R
WINDOW ROCK    MOSUNNY   60  26  27 CALM      30.22F
$$

AZZ023-021500-
GREATER PHOENIX AREA

CITY           SKY/WX    TMP DP  RH WIND       PRES   REMARKS
PHOENIX        MOSUNNY   79  39  23 E10       29.88R
LUKE AFB       SUNNY     73  41  31 N3        29.89R
DEER VALLEY    SUNNY     79  32  18 E7        29.91R
SCOTTSDALE     SUNNY     79  39  23 CALM      29.93R
MESA-GATEWAY   MOSUNNY   72  43  35 SE7       29.93R
CHANDLER       MOSUNNY   77  46  33 E6        29.90
$$

AZZ027-028-021500-
SOUTHWEST MARICOPA COUNTY AND PINAL COUNTY

CITY           SKY/WX    TMP DP  RH WIND       PRES   REMARKS
CASA GRANDE    SUNNY     75  37  25 CALM      29.92R
GILA BEND      FAIR      78  38  23 SE5       29.88R
$$

AZZ503-504-507>509-021500-
SOUTHEAST ARIZONA

CITY           SKY/WX    TMP DP  RH WIND       PRES   REMARKS
TUCSON         SUNNY     77  33  20 SE12      30.03R
DAVIS-MONTHAN  SUNNY     79  34  19 SE9       30.01R
RYAN FIELD       N/A     73  36  25 E5        30.01R
NOGALES        SUNNY     67  35  30 CALM      30.11R
SIERRA VISTA   SUNNY     72  30  21 SE5       30.16R
SAFFORD        SUNNY     70  23  17 SE5       30.03R
$$

AZZ020-021-025-026-031-021500-
SOUTHWEST ARIZONA

CITY           SKY/WX    TMP DP  RH WIND       PRES   REMARKS
YUMA           NOT AVBL
$$

CAZ031-033-041-043-047-048-061-021500-
SOUTHERN CALIFORNIA

CITY           SKY/WX    TMP DP  RH WIND       PRES   REMARKS
DOWNTOWN L.A.  SUNNY     62  56  80 CALM      29.99R
L.A. AIRPORT   PTSUNNY   60  57  89 SW3       29.99S
SAN DIEGO      CLOUDY    63  55  75 N3        30.02R
BURBANK        SUNNY     61  54  77 CALM      29.99S
ONTARIO        MOSUNNY   61  53  75 CALM      29.99S
RIVERSIDE      SUNNY     59  54  83 CALM      30.00S
PALM SPRINGS   SUNNY     75  42  30 CALM      29.86R
EL CENTRO NAS  SUNNY     77  36  22 W6        29.87R HAZE
IMPERIAL       SUNNY     74  44  34 W9        29.84R
BLYTHE         SUNNY     71  41  33 N5        29.84R
$$

NVZ020-UTZ003-021500-
SOUTHERN NEVADA-UTAH

CITY           SKY/WX    TMP DP  RH WIND       PRES   REMARKS
LAS VEGAS      NOT AVBL
SALT LAKE CITY MOSUNNY   65  47  52 NW3       29.94R
$$

NMZ009-TXZ055-021500-
NEW MEXICO-WEST TEXAS

CITY           SKY/WX    TMP DP  RH WIND       PRES   REMARKS
ALBUQUERQUE    MOSUNNY   65  43  44 CALM      30.18R
EL PASO        MOSUNNY   79  45  29 S10       30.05S
$$


........................KEY........................
SKY/WX - SKY CONDITION/WEATHER
TMP    - TEMPERATURE IN FAHRENHEIT
DP     - DEW POINT IN FAHRENHEIT
RH     - RELATIVE HUMIDITY IN PERCENT
WIND   - DIRECTION AND SPEED IN MILES PER HOUR (MPH)
VRB    - VARIABLE WIND DIRECTION
PRES   - MEAN SEA LEVEL PRESSURE IN INCHES OF MERCURY
         F - FALLING PRESSURE   R - RISING PRESSURE
         S - STEADY PRESSURE
VSB    - VISIBILITY IN MILES
HX     - HEAT INDEX IN FAHRENHEIT
WCI    - WIND CHILL INDEX IN FAHRENHEIT
TC     - TEMPERATURE IN CELSIUS WHICH IS ALSO KNOWN AS
         TEMPERATURE IN CENTIGRADE
AFB    - AIR FORCE BASE
         LUKE AFB IS LUKE AIR FORCE BASE
         DAVIS-MONTHAN IS DAVIS-MONTHAN AIR FORCE BASE
NAS    - NAVAL AIR STATION
         EL CENTRO NAS IS EL CENTRO NAVAL AIR STATION
N/A    - NOT AVAILABLE



USA.gov is the U.S. government's official web portal to all federal, state and local government web resources and services.